Location: *
(46.1200°N, 11.2700°E)
Time: 20:45:21
(UTC+00:00)

Cosmos 1959 Rocket - Pass Details

Date: 02 March 2021
Orbit: 948 x 996 km, 83.0° (Epoch: 17 April)

Event Time Altitude Azimuth Distance (km) Brightness Sun altitude
Rises 18:45:34 0° 171° (S) 3,609 7.3 -18.5°
Reaches altitude 10° 18:48:06 10° 166° (SSE) 2,666 6.6 -19.0°
Maximum altitude 18:53:59 53° 92° (E) 1,153 4.5 -20.0°
Drops below altitude 10° 18:59:54 10° 17° (NNE) 2,687 6.8 -21.0°
Sets 19:02:27 0° 13° (NNE) 3,640 7.5 -21.4°
